Theta_e
344 342 341 340 340 340 340 339 339 339 338 337 336 336 335 335 334 333 332 332 332 333 332 330 330 328 326 325 324 326 329 330 333 331 330 330 331 333 333 333 332 331 329
341 340 340 339 339 339 338 338 338 336 336 335 334 334 334 333 333 331 332 332 332 332 332 331 329 326 329 325 329 331 331 331 330 331 329 329 330 331 332 331 332 329 331
339 339 338 337 337 336 336 336 336 336 335 334 333 333 333 332 331 332 332 332 332 332 332 330 329 329 329 327 330 331 332 331 330 330 329 324 326 330 330 330 330 330 331
338 337 336 333 334 336 336 336 335 335 334 334 333 332 331 331 331 331 331 332 333 332 331 330 330 330 330 329 331 331 330 330 330 329 327 325 324 325 327 325 324 326 325
336 333 333 335 336 336 336 336 335 334 334 333 331 330 331 330 330 331 333 333 332 332 332 330 331 330 330 331 331 331 330 329 325 325 326 323 322 323 323 322 321 320 320
333 332 333 334 335 335 335 335 335 334 333 332 331 331 332 330 328 329 333 332 331 332 332 328 328 326 326 327 328 330 331 329 325 325 323 322 322 321 321 320 319 319 317
331 332 333 334 334 334 334 334 334 334 333 332 332 332 332 331 329 329 331 333 333 332 332 331 329 327 326 327 326 328 330 327 328 327 328 324 319 320 320 320 320 321 317
331 331 332 332 332 333 334 334 334 334 333 333 332 332 332 329 329 328 330 332 332 332 331 332 330 328 330 326 328 328 327 327 327 328 327 323 319 319 320 320 322 318 316
331 331 330 331 332 333 334 334 334 334 333 332 331 330 331 329 327 326 327 331 331 331 330 330 330 328 326 325 327 328 327 326 326 326 326 321 319 319 319 318 317 318 316
331 331 330 329 333 333 334 334 334 334 334 332 330 330 329 330 326 325 328 331 330 329 329 328 325 327 326 326 325 327 327 326 325 324 322 319 318 318 318 319 318 318 317
331 331 329 331 331 332 333 334 334 333 332 331 330 330 330 330 325 325 326 329 329 328 328 326 325 325 325 324 324 325 325 326 323 320 319 318 318 317 318 318 318 318 319
331 329 330 332 332 333 334 333 333 333 332 331 331 330 329 329 326 326 325 327 326 327 328 326 323 323 323 323 322 322 323 323 323 319 318 317 318 317 318 318 319 320 321
331 329 331 333 333 334 334 333 333 332 331 330 329 329 329 327 325 325 324 324 324 326 326 325 323 322 322 321 321 321 322 321 320 320 318 318 318 318 320 318 319 320 320
331 330 332 333 334 334 334 333 331 332 331 329 328 328 328 327 326 324 323 323 323 323 323 324 322 320 319 319 318 319 320 321 322 321 320 319 319 321 321 319 320 323 324
332 330 332 334 334 335 334 331 331 331 330 328 328 328 327 326 326 325 324 324 324 323 322 320 320 318 317 319 320 320 320 320 320 321 320 320 320 322 322 322 323 324 324
332 331 332 333 335 334 333 331 330 330 327 327 328 327 326 326 323 323 323 323 323 322 320 319 322 319 319 320 321 320 320 320 321 321 321 321 322 324 323 323 324 323 323
332 331 331 332 333 334 333 331 331 327 327 326 325 326 326 324 324 323 323 323 322 321 321 320 322 323 321 321 322 321 321 321 322 323 324 324 324 324 323 324 325 325 323
332 332 332 332 331 332 332 330 332 331 330 328 325 323 324 324 324 324 323 323 323 324 323 322 321 325 324 323 324 322 323 323 324 324 325 325 325 326 325 326 325 324 324
331 331 330 331 330 330 330 329 332 331 331 330 323 323 323 324 324 323 323 326 325 325 325 324 323 326 326 326 326 325 325 326 326 326 327 327 327 326 326 326 325 324 323
331 330 330 330 331 331 331 329 328 331 332 331 329 328 318 319 321 321 323 328 328 328 326 326 326 326 327 327 327 327 327 327 327 327 327 327 327 327 326 325 325 324 323
332 330 329 330 330 330 331 330 329 327 329 331 332 329 324 327 327 326 325 328 328 327 328 329 328 327 327 327 328 328 328 327 327 327 328 327 326 325 324 324 323 323 324
332 331 329 328 328 329 330 330 330 329 327 326 328 329 326 326 329 328 327 328 328 328 327 327 327 327 328 328 328 328 328 328 328 327 327 328 327 327 327 327 326 326 326
332 331 330 327 328 328 329 329 330 331 330 328 326 327 326 329 330 330 330 329 329 328 328 328 327 326 327 327 327 327 328 328 328 329 329 329 328 329 328 328 328 327 327
332 332 332 330 330 330 330 330 331 331 331 331 329 328 325 326 328 328 329 329 329 329 329 329 329 328 327 326 326 326 326 325 326 327 329 329 329 329 328 329 329 328 328
322 328 333 333 332 332 332 333 333 332 331 332 332 331 330 329 329 330 331 331 332 332 332 331 331 330 330 329 328 327 327 326 325 325 325 326 326 325 325 325 326 325 325
308 310 311 314 316 321 325 327 327 327 326 328 330 331 331 331 330 330 330 330 330 331 331 331 332 331 331 330 329 330 330 329 327 326 325 326 326 327 326 326 325 324 323
Wind_Speed
22 21 21 20 19 17 16 14 13 11 10 10 10 10 10 11 10 9 8 8 9 8 8 10 9 10 10 10 12 10 7 6 5 5 7 6 7 10 11 13 14 18 23
22 22 21 20 18 16 14 12 11 10 10 9 10 10 11 11 9 10 10 8 8 8 7 9 10 10 9 14 10 10 9 7 7 10 11 5 5 10 14 17 19 21 27
22 22 20 18 16 15 13 12 11 12 11 11 11 11 11 10 10 9 7 8 7 6 5 4 9 10 10 11 12 10 8 8 9 13 10 6 7 16 19 19 19 22 25
21 20 18 17 16 15 13 13 12 12 12 11 11 10 11 11 10 8 7 6 5 4 3 2 4 9 12 12 10 10 12 12 10 12 11 8 10 14 22 25 21 23 26
19 18 17 16 15 15 14 13 12 12 12 12 12 12 10 9 8 6 6 6 6 5 5 4 3 3 9 13 10 11 16 15 15 14 9 8 12 15 17 18 26 27 25
19 18 16 15 15 14 13 12 13 14 14 14 13 11 11 7 6 6 4 7 7 6 6 5 4 6 3 8 8 14 15 17 16 12 7 10 10 16 23 26 30 28 8
18 18 16 15 15 14 13 12 13 14 13 12 11 11 9 7 7 6 7 6 6 6 7 8 6 3 6 5 8 12 11 17 13 14 15 15 16 22 26 26 27 25 19
19 17 15 16 15 13 12 11 12 13 13 13 12 11 10 9 8 7 7 6 6 7 6 7 8 8 7 9 10 11 12 12 11 10 12 14 24 28 27 29 27 28 28
20 18 16 15 14 13 12 11 12 13 13 12 12 11 10 10 9 7 4 6 7 7 5 4 4 9 11 9 9 13 14 11 12 13 15 18 29 30 36 36 30 32 18
21 18 15 15 14 12 11 11 11 11 12 13 13 10 10 11 12 6 2 4 7 6 5 4 4 6 13 12 10 13 15 15 16 18 21 23 26 28 33 29 34 27 22
21 19 16 15 13 12 11 10 11 12 14 15 14 10 8 11 11 7 5 4 5 5 5 4 4 7 9 11 11 20 21 19 18 20 25 24 27 25 19 25 22 24 20
22 19 19 16 13 13 12 11 11 12 12 12 11 9 8 8 9 7 6 5 6 4 5 5 6 8 8 8 13 18 27 24 19 23 22 23 23 23 22 25 20 21 13
21 20 19 15 12 12 11 11 10 10 11 10 10 8 7 8 7 7 5 6 6 4 5 7 9 9 7 8 11 23 31 23 22 19 18 19 21 23 20 24 23 16 9
22 20 18 15 13 13 11 9 8 10 10 11 10 9 10 9 9 7 6 6 6 6 9 13 12 10 8 16 25 21 23 19 19 19 19 19 21 19 21 21 16 12 9
22 21 18 15 14 13 9 6 6 9 9 13 10 10 11 10 9 9 8 8 7 9 16 18 14 12 20 16 14 17 20 23 20 18 21 20 20 17 20 19 15 12 10
21 20 19 16 14 13 11 10 6 11 11 8 6 11 8 9 11 10 10 9 9 16 18 18 12 14 13 13 14 18 19 20 19 18 18 19 20 19 19 18 12 13 11
21 20 19 15 15 13 13 12 12 8 9 9 10 10 11 12 13 14 13 13 16 15 13 12 12 14 13 13 14 17 17 17 18 16 18 20 19 18 18 17 16 16 15
21 19 17 17 15 14 13 11 13 14 13 11 11 11 10 13 17 17 17 17 12 9 13 13 14 13 13 14 15 18 15 18 17 18 17 18 17 17 19 18 17 16 16
21 21 19 17 16 15 14 12 12 14 14 15 13 13 14 15 16 18 18 11 12 11 11 12 15 12 13 13 15 20 18 18 19 21 17 15 16 17 18 17 17 16 15
19 19 20 18 16 15 15 13 12 11 13 14 15 16 16 18 15 17 15 11 12 14 16 14 15 14 14 13 14 13 14 15 15 14 16 16 16 17 16 16 17 17 19
18 19 21 17 16 17 15 14 13 13 12 13 13 16 23 17 16 17 17 12 11 11 11 13 15 15 17 16 17 16 17 16 17 16 17 17 17 18 19 19 19 19 18
18 19 22 19 17 16 15 15 14 13 12 12 12 15 19 14 13 14 15 15 13 11 12 13 12 13 14 16 18 19 20 20 19 19 20 20 20 20 19 20 20 20 21
17 18 19 19 16 14 14 15 14 13 13 12 13 14 18 15 10 11 12 12 13 13 12 12 12 12 13 14 15 16 17 18 19 20 21 22 22 22 22 23 23 23 24
5 11 15 18 15 15 14 13 12 10 12 12 11 13 14 14 11 8 8 9 10 10 11 12 12 13 13 14 15 16 16 16 16 18 20 20 22 22 23 23 24 25 26
21 12 3 5 9 10 9 11 9 10 9 8 10 9 10 9 9 7 6 6 7 7 8 9 10 11 13 15 15 16 17 19 20 19 19 22 23 24 25 26 27 27 28
32 31 28 27 27 24 20 17 16 16 16 13 9 7 6 5 5 4 3 2 3 5 5 6 7 8 9 10 13 18 20 19 18 23 24 24 25 26 27 28 29 30 30
Wind_Direction
146 143 140 139 138 140 144 146 151 154 166 176 184 185 186 187 192 195 205 197 210 201 205 203 202 191 212 217 190 226 240 226 174 128 138 149 164 184 175 168 170 170 175
143 142 140 138 140 142 144 148 156 164 173 173 174 178 181 186 185 193 199 195 205 212 207 204 186 190 189 196 211 216 219 200 169 152 137 117 108 160 153 152 161 168 171
143 141 140 140 142 143 145 150 160 161 160 165 170 175 180 181 183 193 204 203 215 213 201 197 194 196 192 199 217 207 192 169 155 158 130 131 117 146 144 149 157 151 165
144 142 140 143 145 146 147 153 158 159 160 169 172 169 172 175 178 190 201 206 188 179 166 200 223 211 202 203 197 183 156 147 136 131 139 130 134 140 138 131 119 151 151
144 141 144 146 146 146 150 155 158 159 161 164 160 162 167 179 181 194 195 169 159 160 134 111 65 168 187 193 189 169 158 152 147 137 139 136 139 141 139 133 119 121 125
147 146 150 149 146 148 151 158 163 164 166 168 170 164 169 147 152 176 165 154 163 148 148 139 103 91 154 201 204 163 166 159 155 153 146 152 155 145 141 138 132 127 104
153 149 151 153 150 152 157 167 171 171 169 169 161 155 147 140 155 153 145 152 158 161 160 160 140 123 95 115 151 166 143 162 169 166 167 164 155 152 145 139 139 136 126
153 151 151 157 152 155 164 170 168 172 167 158 153 141 142 152 153 154 151 154 142 135 150 173 176 163 144 140 141 138 131 158 163 164 157 158 158 150 145 141 137 122 127
155 149 150 152 151 158 166 166 166 162 159 154 144 145 150 152 156 154 190 156 143 134 135 148 187 177 184 179 159 143 142 142 147 154 147 157 158 153 153 145 132 134 133
158 154 150 153 151 157 155 164 160 162 159 149 143 152 158 154 148 153 141 130 134 135 131 123 159 175 185 183 180 154 146 148 143 142 139 151 157 161 158 156 150 142 139
159 153 151 151 154 149 152 157 157 158 153 153 154 159 170 152 146 165 154 157 164 159 164 153 153 149 159 175 181 179 163 153 145 138 138 143 157 153 154 154 147 147 145
159 154 150 152 156 153 155 158 161 157 156 156 155 155 139 131 148 156 155 154 167 183 181 161 164 152 161 172 171 179 161 146 144 141 138 141 147 155 160 158 150 153 138
161 159 153 160 160 158 156 152 164 161 155 151 151 161 154 150 150 154 161 175 188 194 165 171 157 143 152 163 171 164 157 146 144 144 144 148 156 157 156 163 163 163 168
164 160 159 167 165 162 165 161 163 160 165 157 162 177 162 156 156 159 159 165 164 172 158 155 143 133 131 134 140 141 149 147 151 152 149 149 152 151 159 165 167 178 190
168 165 167 167 177 163 152 145 165 146 171 165 181 171 167 177 178 172 167 159 159 159 148 137 127 125 127 133 133 138 145 154 145 152 148 150 158 164 165 170 178 181 191
172 174 178 164 173 168 152 141 125 137 154 178 143 149 146 167 170 166 161 162 158 150 143 144 130 137 139 135 130 140 145 148 149 150 155 158 162 170 166 173 181 188 198
180 175 174 181 179 162 163 157 155 147 157 164 159 142 149 163 162 156 150 145 142 145 141 150 146 146 149 150 145 146 150 153 156 163 163 166 169 166 170 182 196 198 201
183 176 177 191 179 168 167 163 161 167 171 164 165 159 157 158 157 155 152 144 141 141 153 156 163 158 155 158 152 149 153 159 162 166 167 171 174 179 189 197 200 202 205
184 179 190 188 179 168 167 166 167 162 170 156 154 159 159 158 158 160 162 160 158 156 157 162 175 178 167 169 167 164 167 170 173 177 181 180 187 193 199 205 206 209 215
189 180 192 183 172 178 172 169 174 167 161 157 170 165 163 159 164 173 183 194 169 167 168 173 177 185 184 183 182 176 181 178 180 185 190 194 198 205 207 208 213 211 217
190 176 193 186 178 185 179 179 173 178 178 171 172 168 175 173 173 181 191 195 184 178 172 169 172 183 190 189 188 189 187 192 199 200 203 206 205 208 214 218 221 227 234
194 176 187 198 185 190 186 188 182 180 179 178 172 166 183 203 176 178 187 195 198 191 185 185 184 184 187 190 196 203 207 208 210 211 213 215 214 219 224 227 231 233 235
195 187 186 200 189 187 184 186 184 188 182 176 175 162 185 205 198 185 185 191 197 201 200 198 202 199 200 201 202 205 209 213 215 215 217 220 225 228 230 232 235 238 240
194 185 192 197 192 183 189 195 191 190 189 183 176 163 184 200 213 203 198 193 196 201 205 209 215 219 216 217 218 220 223 223 222 222 223 227 230 232 237 238 239 242 246
69 61 81 180 165 200 167 180 174 163 180 177 168 174 169 183 196 201 200 208 209 212 214 220 225 228 231 235 236 236 238 236 233 234 235 234 238 240 240 238 242 247 250
71 67 55 54 52 51 51 61 62 66 66 63 74 89 96 129 108 116 138 173 222 226 235 238 243 247 252 256 258 250 250 253 249 247 245 250 252 248 249 251 253 255 255